Location: Moscow
(55.7500°N, 37.5830°E)
Time: 07:18:20
(UTC+03:00)

A-11 Canister half - Pass Details

Date: 05 December 2021
Orbit: 1524 x 1684 km, 47.3° (Epoch: 17 January)

Event Time Altitude Azimuth Distance (km) Brightness Sun altitude
Exits shadow 02:05:00 20° 100° (E) 3,164 10.7 -51.4°
Drops below altitude 10° 02:08:00 10° 88° (E) 3,907 11.4 -51.1°
Sets 02:11:26 0° 80° (E) 4,877 12.1 -50.8°
